STARLINK-34138, 63971

Orbit data source: Space-Track

STARLINK-34138, 63971 is a payload satellite owned by SpaceX/Seattle (US) in LEO that was launched on Tue, 13 May 2025 UTC via an FALCON 9 launch vehicle from the Air Force Eastern Test Range (AFETR). Payload-class satellites include a variety of spacecraft equipped with specific instruments for various scientific and technological missions. These include communications satellites like Starlink; space stations such as the ISS; scientific satellites like the Hubble; Earth observation satellites from companies like Planet Labs, Umbra, and HawkEye 360; GPS; miniature CubeSats for education and research; and military/defense satellites.

Loading next visibility...
Identifier
63971, 2025-099V
Orbit
LEO
Country
Flag of USUS
Related business
Manufacturer
SpaceX/Seattle
Mission
Operational Commercial Communications
Bus & Motor
STARLINK V2MO, Unknown motor
Mass
575 kg wet, ~530 kg dry
Launch date (UTC)
2025-05-13 (11 months ago)
Launch vehicle
FALCON 9
Launch site
Air Force Eastern Test Range (AFETR)
Object type
Payload
Rocket body
Debris
Shape & HBR
Box + 2 Pan, 17.7 m
Radar Cross Section
36.964 m², Large (>1 m²)

Expand to show TLE details & history
Last TLE update: 1 day ago

TLE from 1 day ago
0 STARLINK-34138
1 63971U 25099V   26093.51700919  .00043106  00000-0  15667-2 0  9994
2 63971  42.9995  32.5104 0000212 249.3559 110.7270 15.27583887 51179
Epoch: 2026-04-03T12:24Z
TLE epoch observation values (Epoch: 2026-04-03T12:24:29.594Z)
Latitude
0.00001°
Longitude
14.5371°
Altitude
482.864 km
Speed
7.626 km/s
True Right ascension
02h 10m 02s
True Declination
0° 00' 00"
Sunlit
Object was in daylight at epoch
Visualization orbit readout
Latitude
Unknown
Longitude
Unknown
Altitude
Unknown
Speed
Unknown
Apparent Right ascension
Unknown
Apparent Declination
Unknown
Sunlit
N/A
Visualization observer readout
Local Sidereal Time
18:00:12
Azimuth
Unknown
Elevation
Unknown
Doppler factor
Unknown
Orbital elements
Apogee altitude
485.128 km
Perigee altitude
484.837 km
Semi-major axis
6,863.12 km
Eccentricity
0.00002
Inclination
42.9995°
RAAN
32.5104°
Arg. of periapsis
249.3559°
True anomaly
110.72927°
Mean anomaly
110.727°
Eccentric anomaly
110.72814°
Mean motion
3.81734 °/min
Orbital period
94.31 mins
BSTAR
0.0015667
Loading maneuver chart data...
Computing Atmospheric mass density...
Loading historical data...
Loading historical data...
Loading historical data...
Loading historical data...
Loading historical data...
Loading historical data...
Loading historical data...

Documentation

Showing up to 5 results
|